Regional Weather Roundup
Issued by NWS

Home | Current Version | Previous Version | Graphics & Text | Print | Product List | Glossary Off
Versions: 1 2 3 4 5 6 7 8 9 10 11 12 13 14 15 16 17 18 19 20 21 22 23 24 25 26 27 28 29 30 31 32 33 34 35 36 37 38 39 40 41 42 43 44 45 46 47 48 49 50

000
ASUS43 KTOP 141108
RWRKS

WEATHER ROUNDUP FOR KANSAS
NATIONAL WEATHER SERVICE GOODLAND KS
500 AM CST SUN FEB 14 2016

NOTE:  "FAIR" INDICATES FEW OR NO CLOUDS BELOW 12,000 FEET WITH NO
SIGNIFICANT WEATHER AND/OR OBSTRUCTIONS TO VISIBILITY.

KSZ001>006-013>018-027>032-041>047-141200-
NORTHWEST KANSAS

CITY           SKY/WX    TMP DP  RH WIND       PRES   REMARKS
GOODLAND       CLEAR     30  24  78 N12       29.97F WCI  20
HAYS           CLOUDY    19   9  63 S6        29.99F
HILL CITY      CLEAR     33  27  78 W7        29.97S
RUSSELL        CLOUDY    17  14  88 SW8       29.98S
$$

KSZ061>065-074>080-084>089-141200-
SOUTHWEST KANSAS

CITY           SKY/WX    TMP DP  RH WIND       PRES   REMARKS
DODGE CITY     CLOUDY    26  21  81 N10       29.98F WCI  16
ELKHART          N/A     36  25  65 NW9         N/A
GARDEN CITY    CLOUDY    27  23  85 W9        29.99S
GREAT BEND     CLOUDY    19   9  63 CALM      30.00S
LIBERAL        CLOUDY    28  21  74 NW12      29.98S WCI  18
PRATT          CLOUDY    24  13  64 NE7       29.99R
$$

KSZ066>073-081>083-090>101-141200-
SOUTHEAST KANSAS

CITY           SKY/WX    TMP DP  RH WIND       PRES   REMARKS
CHANUTE        CLOUDY    34  16  47 N8        30.04R
COFFEYVILLE    CLOUDY    40  19  43 N5        30.03R
HUTCHINSON     CLOUDY    23  11  60 NE5       30.01S
MEDICINE LODGE   N/A     31  18  58 N12       29.97R WCI  22
NEWTON         CLOUDY    21   9  58 N9        30.03R
PARSONS        CLOUDY    39  18  42 CALM      30.04R
WICHITA INTL   MOCLDY    29  12  49 N7        29.99F
WICHITA JABRA  CLOUDY    26  12  55 NE5       29.99F
WICHITA MCCONL PTCLDY    28  14  54 N6        29.99S
WINFIELD       CLOUDY    38  21  50 E8        29.99F
$$

KSZ007>012-019>026-033>040-048>060-102>105-141200-
NORTHEAST KANSAS

CITY           SKY/WX    TMP DP  RH WIND       PRES   REMARKS
CONCORDIA      CLEAR     17   8  67 S5        29.97F
EMPORIA        CLOUDY    25  13  60 CALM      30.00S
LAWRENCE       CLOUDY    26   9  48 SE6       30.05R
MANHATTAN      CLOUDY    17   9  70 CALM      30.04F
MARYSVILLE     CLEAR     18   9  68 S6        29.99F
OLATHE IND     CLOUDY    25  15  66 SE12      30.03S WCI  14
OLATHE EXE     MIX PCPN  25  15  66 SE9       30.03S
SALINA         CLOUDY    20  10  65 CALM      30.02F
TOPEKA BILLARD MOCLDY    25   6  44 SE5       30.05S
TOPEKA FORBES  MOCLDY    25   8  48 CALM      30.02S
$$



USA.gov is the U.S. government's official web portal to all federal, state and local government web resources and services.